EW4100 Weather Reports


time (UTC)temp
C
wind
direction
speed
KPH
gust
KPH
rain 1hr
cm
rain 24hr
cm
rain mn
cm
humidity
%
barometer
mb
20260505140554 12 0 1.6 4.8 0.00 0.00 0.00 82 1015.4
20260505140113 12 0 0.0 4.8 0.00 0.00 0.00 82 1015.4
20260505130111 12 0 1.6 8.0 0.00 0.00 0.00 83 1014.8
20260505124557 12 0 0.0 8.0 0.00 0.00 0.00 83 1014.6
20260505124053 11 0 1.6 12.9 0.00 0.00 0.00 83 1014.6
20260505123553 12 174 0.0 12.9 0.00 0.00 0.00 83 1014.5
20260505123055 11 0 3.2 12.9 0.00 0.00 0.00 83 1014.5
20260505122553 11 0 0.0 12.9 0.00 0.00 0.00 83 1014.4
20260505122056 11 0 1.6 12.9 0.00 0.00 0.00 83 1014.5
20260505121559 11 136 4.8 9.7 0.00 0.00 0.00 83 1014.5
20260505121054 11 0 1.6 11.3 0.00 0.00 0.00 83 1014.3
20260505120553 11 136 0.0 11.3 0.00 0.00 0.00 83 1014.4
20260505120055 11 227 1.6 11.3 0.00 0.00 0.00 83 1014.3
20260505115553 11 298 1.6 9.7 0.00 0.00 0.00 83 1014.2
20260505115053 11 0 1.6 6.4 0.00 0.00 0.00 83 1014.2
20260505114559 11 171 0.0 16.1 0.00 0.00 0.00 83 1014.2
20260505114053 11 0 3.2 16.1 0.00 0.00 0.00 83 1014.2
20260505113549 11 138 1.6 12.9 0.00 0.00 0.00 83 1014.2
20260505113109 11 155 3.2 16.1 0.00 0.00 0.00 83 1014.1
20260505112553 11 179 3.2 16.1 0.00 0.00 0.00 83 1014.1
20260505112054 11 172 0.0 9.7 0.00 0.00 0.00 83 1014.1
20260505111554 11 213 3.2 9.7 0.00 0.00 0.00 83 1014.0
20260505111054 11 219 1.6 11.3 0.00 0.00 0.00 84 1014.0
20260505110554 11 186 3.2 20.9 0.00 0.00 0.00 84 1014.0
20260505102053 11 229 1.6 11.3 0.00 0.00 0.00 84 1013.7
20260505101554 11 241 1.6 11.3 0.00 0.00 0.00 84 1013.7
20260505101053 11 156 0.0 11.3 0.00 0.00 0.00 83 1013.7
20260505100554 11 0 0.0 11.3 0.00 0.00 0.00 83 1013.6
20260505100053 11 244 1.6 9.7 0.00 0.00 0.00 83 1013.6
20260505095556 11 205 0.0 9.7 0.00 0.00 0.00 83 1013.6
20260505095055 11 227 1.6 9.7 0.00 0.00 0.00 83 1013.5
20260505094559 11 218 1.6 4.8 0.00 0.00 0.00 83 1013.5
20260505094055 12 224 0.0 4.8 0.00 0.00 0.00 83 1013.5
20260505093555 12 184 0.0 3.2 0.00 0.00 0.00 83 1013.5
20260505093101 12 0 0.0 4.8 0.00 0.00 0.00 83 1013.3
20260505092556 12 0 0.0 8.0 0.00 0.00 0.00 82 1013.3
20260505092056 12 220 1.6 8.0 0.00 0.00 0.00 82 1013.3
20260505091607 12 0 0.0 8.0 0.00 0.00 0.00 82 1013.3
20260505091059 12 183 0.0 8.0 0.00 0.00 0.00 82 1013.2
20260505090555 12 185 1.6 8.0 0.00 0.00 0.00 82 1013.3
20260505090057 12 227 0.0 6.4 0.00 0.00 0.00 81 1013.3
20260505085556 12 241 1.6 6.4 0.00 0.00 0.00 81 1013.2
20260505085056 12 0 0.0 6.4 0.00 0.00 0.00 81 1013.2
20260505084557 12 212 0.0 6.4 0.00 0.00 0.00 81 1013.1
20260505084056 12 185 0.0 9.7 0.00 0.00 0.00 80 1013.1
20260505083554 12 197 0.0 9.7 0.00 0.00 0.00 80 1013.1
20260505083100 12 0 0.0 12.9 0.00 0.00 0.00 80 1013.1
20260505082555 12 0 1.6 12.9 0.00 0.00 0.00 80 1013.0
20260505082057 12 207 4.8 12.9 0.00 0.00 0.00 79 1013.0
20260505081605 13 0 3.2 12.9 0.00 0.00 0.00 79 1013.0
20260505081057 13 178 1.6 11.3 0.00 0.00 0.00 79 1012.9
20260505080556 13 0 1.6 11.3 0.00 0.00 0.00 78 1012.9
20260505080058 13 229 1.6 11.3 0.00 0.00 0.00 78 1012.9
20260505075555 13 226 3.2 9.7 0.00 0.00 0.00 78 1012.9
20260505075055 13 225 3.2 11.3 0.00 0.00 0.00 77 1012.9
20260505074056 13 209 1.6 6.4 0.00 0.00 0.00 77 1012.8
20260505073555 14 0 1.6 6.4 0.00 0.00 0.00 76 1012.8
20260505073126 14 0 1.6 6.4 0.00 0.00 0.00 76 1012.7
20260505072555 14 0 1.6 8.0 0.00 0.00 0.00 75 1012.6
20260505072055 14 227 1.6 8.0 0.00 0.00 0.00 75 1012.5
20260505071602 15 206 1.6 8.0 0.00 0.00 0.00 75 1012.4
20260505071056 15 0 0.0 6.4 0.00 0.00 0.00 74 1012.4
20260505070556 15 252 3.2 6.4 0.00 0.00 0.00 74 1012.3
20260505065556 15 221 1.6 6.4 0.00 0.00 0.00 74 1012.2
20260505065054 15 197 0.0 8.0 0.00 0.00 0.00 74 1012.2
20260505064552 15 0 1.6 8.0 0.00 0.00 0.00 73 1012.1
20260505064053 15 0 0.0 6.4 0.00 0.00 0.00 73 1012.0
20260505063553 15 0 1.6 6.4 0.00 0.00 0.00 73 1012.1
20260505063053 15 0 1.6 4.8 0.00 0.00 0.00 73 1012.0
20260505062553 15 244 0.0 4.8 0.00 0.00 0.00 72 1012.0
20260505062056 15 0 0.0 4.8 0.00 0.00 0.00 72 1011.9
20260505061555 15 234 0.0 4.8 0.00 0.00 0.00 72 1011.9
20260505061054 15 0 0.0 8.0 0.00 0.00 0.00 72 1011.8
20260505060554 15 257 0.0 8.0 0.00 0.00 0.00 72 1011.8
20260505060059 15 230 0.0 6.4 0.00 0.00 0.00 72 1011.8
20260505055553 15 0 0.0 3.2 0.00 0.00 0.00 72 1011.7
20260505055055 15 0 0.0 3.2 0.00 0.00 0.00 72 1011.7
20260505054555 15 0 0.0 4.8 0.00 0.00 0.00 71 1011.6
20260505054055 15 0 0.0 4.8 0.00 0.00 0.00 70 1011.7
20260505053555 15 0 0.0 3.2 0.00 0.00 0.00 70 1011.6
20260505053057 15 0 0.0 4.8 0.00 0.00 0.00 70 1011.6
20260505052553 15 0 0.0 6.4 0.00 0.00 0.00 70 1011.6
20260505052053 15 222 0.0 6.4 0.00 0.00 0.00 69 1011.4
20260505051604 15 0 0.0 0.0 0.00 0.00 0.00 69 1011.4
20260505051057 16 0 0.0 0.0 0.00 0.00 0.00 68 1011.4
20260505050551 16 0 0.0 0.0 0.00 0.00 0.00 68 1011.4
20260505050106 16 0 0.0 0.0 0.00 0.00 0.00 66 1011.4
20260505041557 17 0 0.0 0.0 0.00 0.00 0.00 61 1010.9
20260505041054 18 0 0.0 0.0 0.00 0.00 0.00 60 1010.9
20260505040553 18 0 0.0 0.0 0.00 0.00 0.00 60 1010.8
20260505040056 18 0 0.0 0.0 0.00 0.00 0.00 59 1010.8
20260505035554 18 0 0.0 0.0 0.00 0.00 0.00 60 1010.7
20260505035057 19 0 0.0 0.0 0.00 0.00 0.00 59 1010.6
20260505034554 19 0 0.0 0.0 0.00 0.00 0.00 56 1010.5
20260505034050 19 0 0.0 0.0 0.00 0.00 0.00 56 1010.5
20260505033553 20 0 0.0 0.0 0.00 0.00 0.00 59 1010.4
20260505033053 20 0 0.0 0.0 0.00 0.00 0.00 57 1010.3
20260505032553 20 0 0.0 0.0 0.00 0.00 0.00 54 1010.3
20260505032057 20 0 0.0 0.0 0.00 0.00 0.00 55 1010.2
20260505031556 21 0 0.0 0.0 0.00 0.00 0.00 55 1010.2
20260505031054 21 0 0.0 0.0 0.00 0.00 0.00 56 1010.2
20260505030555 21 0 0.0 0.0 0.00 0.00 0.00 54 1010.0
20260505030055 22 0 0.0 0.0 0.00 0.00 0.00 51 1010.1
20260505025554 22 0 0.0 0.0 0.00 0.00 0.00 49 1009.9
20260505025054 22 0 0.0 1.6 0.00 0.00 0.00 48 1009.8
20260505024601 23 0 0.0 3.2 0.00 0.00 0.00 47 1009.8
20260505024053 23 0 0.0 9.7 0.00 0.00 0.00 49 1009.8
20260505023551 23 306 1.6 11.3 0.00 0.00 0.00 45 1009.7
20260505023054 23 273 0.0 11.3 0.00 0.00 0.00 45 1009.7
20260505022553 23 0 3.2 11.3 0.00 0.00 0.00 45 1009.7
20260505022050 23 0 0.0 9.7 0.00 0.00 0.00 45 1009.7
20260505021552 23 0 0.0 9.7 0.00 0.00 0.00 44 1009.7
20260505021049 24 224 1.6 6.4 0.00 0.00 0.00 43 1009.7
20260505020553 24 308 1.6 6.4 0.00 0.00 0.00 43 1009.7
20260505020051 24 0 0.0 3.2 0.00 0.00 0.00 42 1009.6
20260505015554 24 13 0.0 9.7 0.00 0.00 0.00 37 1009.7
20260505015055 25 345 0.0 9.7 0.00 0.00 0.00 43 1009.7
20260505014553 25 286 1.6 9.7 0.00 0.00 0.00 42 1009.6
20260505014055 25 0 0.0 8.0 0.00 0.00 0.00 42 1009.7
20260505013550 25 0 1.6 8.0 0.00 0.00 0.00 39 1009.6
20260505013107 25 304 0.0 6.4 0.00 0.00 0.00 43 1009.7
20260505012553 25 215 1.6 6.4 0.00 0.00 0.00 42 1009.6
20260505012056 25 0 1.6 9.7 0.00 0.00 0.00 36 1009.7
20260505011600 25 264 1.6 9.7 0.00 0.00 0.00 40 1009.6
20260505011054 25 263 1.6 4.8 0.00 0.00 0.00 39 1009.7
20260505010550 25 237 1.6 12.9 0.00 0.00 0.00 41 1009.7
20260505005554 25 140 0.0 11.3 0.00 0.00 0.00 41 1009.7
20260505005054 25 140 1.6 11.3 0.00 0.00 0.00 41 1009.6
20260505004555 25 212 4.8 12.9 0.00 0.00 0.00 40 1009.7
20260505004053 25 233 3.2 12.9 0.00 0.00 0.00 39 1009.7
20260505003558 25 221 1.6 11.3 0.00 0.00 0.00 39 1009.7
20260505003056 25 218 4.8 11.3 0.00 0.00 0.00 39 1009.7
20260505002553 25 205 1.6 11.3 0.00 0.00 0.00 39 1009.7
20260505002053 25 127 3.2 11.3 0.00 0.00 0.00 38 1009.7
20260505001555 25 235 1.6 12.9 0.00 0.00 0.00 38 1009.8
20260505001054 25 258 1.6 12.9 0.00 0.00 0.00 38 1009.8
20260505000550 26 219 3.2 11.3 0.00 0.00 0.00 38 1009.8
20260505000106 25 260 1.6 11.3 0.00 0.00 0.00 38 1009.8
20260504235553 26 175 4.8 12.9 0.00 0.00 0.00 37 1009.8
20260504235053 26 0 0.0 12.9 0.00 0.00 0.00 37 1009.8
20260504234556 26 166 4.8 12.9 0.00 0.00 0.00 36 1009.9
20260504234053 26 199 1.6 17.7 0.00 0.00 0.00 40 1009.9
20260504233554 26 302 6.4 17.7 0.00 0.00 0.00 37 1009.9
20260504233104 26 182 1.6 14.5 0.00 0.00 0.00 39 1010.0
20260504232554 26 0 4.8 14.5 0.00 0.00 0.00 40 1010.0
20260504232053 26 190 3.2 14.5 0.00 0.00 0.00 37 1010.0
20260504231603 26 0 6.4 14.5 0.00 0.00 0.00 39 1009.9
20260504231053 26 245 1.6 8.0 0.00 0.00 0.00 38 1010.0
20260504230556 26 121 1.6 9.7 0.00 0.00 0.00 39 1010.0
20260504230100 25 0 3.2 14.5 0.00 0.00 0.00 40 1010.0
20260504225554 25 211 4.8 14.5 0.00 0.00 0.00 39 1010.1
20260504225053 26 259 4.8 12.9 0.00 0.00 0.00 40 1010.0
20260504224559 25 255 3.2 12.9 0.00 0.00 0.00 41 1010.1
20260504224053 26 275 3.2 9.7 0.00 0.00 0.00 39 1010.1
20260504223553 26 336 1.6 11.3 0.00 0.00 0.00 40 1010.1
20260504223101 26 192 1.6 16.1 0.00 0.00 0.00 38 1010.2
20260504222550 26 205 1.6 16.1 0.00 0.00 0.00 39 1010.3
20260504222049 26 150 4.8 14.5 0.00 0.00 0.00 41 1010.4
20260504221555 25 222 1.6 14.5 0.00 0.00 0.00 40 1010.5
20260504221050 25 296 4.8 12.9 0.00 0.00 0.00 37 1010.7
20260504220553 25 181 1.6 14.5 0.00 0.00 0.00 36 1010.8
20260504220057 25 219 1.6 16.1 0.00 0.00 0.00 41 1010.8
20260504215554 25 220 6.4 16.1 0.00 0.00 0.00 37 1010.8
20260504215053 25 185 4.8 12.9 0.00 0.00 0.00 37 1010.8
20260504214607 25 271 4.8 14.5 0.00 0.00 0.00 40 1010.9
20260504214053 25 210 4.8 16.1 0.00 0.00 0.00 35 1010.9
20260504213553 25 0 6.4 16.1 0.00 0.00 0.00 39 1010.9
20260504213106 25 274 4.8 16.1 0.00 0.00 0.00 39 1010.8
20260504212552 25 231 3.2 19.3 0.00 0.00 0.00 38 1010.8
20260504212056 25 157 4.8 19.3 0.00 0.00 0.00 38 1010.9
20260504211555 25 207 6.4 19.3 0.00 0.00 0.00 38 1010.9
20260504211053 25 294 1.6 9.7 0.00 0.00 0.00 37 1010.8
20260504210556 25 226 3.2 9.7 0.00 0.00 0.00 36 1010.9
20260504210058 25 198 1.6 12.9 0.00 0.00 0.00 37 1010.9
20260504205552 25 197 4.8 12.9 0.00 0.00 0.00 40 1010.9
20260504205056 25 0 1.6 11.3 0.00 0.00 0.00 37 1010.9
20260504204555 24 263 1.6 11.3 0.00 0.00 0.00 37 1011.0
20260504204053 24 279 3.2 11.3 0.00 0.00 0.00 35 1011.0
20260504203553 24 180 3.2 11.3 0.00 0.00 0.00 37 1011.0
20260504203103 24 223 3.2 16.1 0.00 0.00 0.00 39 1011.0
20260504202552 24 199 4.8 16.1 0.00 0.00 0.00 38 1011.0
20260504202053 24 198 3.2 16.1 0.00 0.00 0.00 39 1010.9
20260504201616 24 177 4.8 16.1 0.00 0.00 0.00 38 1010.9
20260504201054 23 209 0.0 14.5 0.00 0.00 0.00 44 1011.0
20260504200553 23 201 3.2 14.5 0.00 0.00 0.00 43 1011.0
20260504200054 23 0 3.2 12.9 0.00 0.00 0.00 42 1011.1
20260504195552 23 191 3.2 14.5 0.00 0.00 0.00 42 1011.0
20260504195053 23 0 4.8 14.5 0.00 0.00 0.00 42 1011.0
20260504194555 23 314 0.0 9.7 0.00 0.00 0.00 40 1011.0
20260504194054 23 189 1.6 12.9 0.00 0.00 0.00 42 1011.0
20260504193552 23 0 3.2 12.9 0.00 0.00 0.00 45 1011.0
20260504193052 23 190 3.2 9.7 0.00 0.00 0.00 46 1011.0
20260504192551 22 161 1.6 8.0 0.00 0.00 0.00 45 1011.0
20260504192055 22 128 1.6 14.5 0.00 0.00 0.00 46 1011.0
20260504191601 22 5 3.2 14.5 0.00 0.00 0.00 43 1011.1
20260504191055 22 0 6.4 14.5 0.00 0.00 0.00 44 1011.2
20260504190555 22 198 3.2 11.3 0.00 0.00 0.00 46 1011.0
20260504190113 22 237 1.6 9.7 0.00 0.00 0.00 45 1011.1
20260504185558 22 249 3.2 11.3 0.00 0.00 0.00 48 1011.2
20260504185055 21 0 3.2 12.9 0.00 0.00 0.00 48 1011.3
20260504184617 21 0 1.6 12.9 0.00 0.00 0.00 51 1011.3
20260504184055 21 203 4.8 12.9 0.00 0.00 0.00 48 1011.3
20260504183556 21 176 4.8 11.3 0.00 0.00 0.00 48 1011.3
20260504183053 21 221 1.6 14.5 0.00 0.00 0.00 49 1011.3
20260504182555 21 173 4.8 14.5 0.00 0.00 0.00 50 1011.3
20260504182054 20 184 3.2 11.3 0.00 0.00 0.00 50 1011.3
20260504181557 20 0 3.2 14.5 0.00 0.00 0.00 51 1011.3
20260504181056 20 9 1.6 16.1 0.00 0.00 0.00 51 1011.2
20260504180559 20 198 4.8 16.1 0.00 0.00 0.00 52 1011.3
20260504180055 20 0 3.2 9.7 0.00 0.00 0.00 52 1011.3
20260504175555 20 188 1.6 9.7 0.00 0.00 0.00 53 1011.3
20260504175055 19 0 1.6 9.7 0.00 0.00 0.00 53 1011.3
20260504174555 19 148 3.2 8.0 0.00 0.00 0.00 54 1011.3
20260504174055 19 169 1.6 9.7 0.00 0.00 0.00 53 1011.2
20260504173554 19 288 3.2 9.7 0.00 0.00 0.00 53 1011.3
20260504173056 18 169 1.6 11.3 0.00 0.00 0.00 54 1011.3
20260504172555 18 0 3.2 11.3 0.00 0.00 0.00 58 1011.3
20260504172056 18 138 3.2 11.3 0.00 0.00 0.00 56 1011.3
20260504171602 18 277 3.2 9.7 0.00 0.00 0.00 57 1011.4
20260504171056 18 296 1.6 9.7 0.00 0.00 0.00 58 1011.4
20260504170555 18 197 1.6 9.7 0.00 0.00 0.00 58 1011.4
20260504160111 16 221 3.2 8.0 0.00 0.00 0.00 65 1011.1
20260504151053 11 210 0.0 3.2 0.00 0.00 0.00 86 1010.9
20260504150553 11 0 0.0 3.2 0.00 0.00 0.00 87 1010.7